User: anonymous   Login
Location: Fort Wayne
(41.1310°N, 85.1290°W)
Time: 12:05:24
(UTC-05:00)
Language:

Meteor 2-10 Rocket - Orbit

View from above orbital plane
View from above orbital plane
View from above satellite
View from above satellite

Ground track
Ground track

The orbit data is extracted from the following two-line orbital elements,

1 14453U 83109B   17344.94763453 +.00000042 +00000-0 +12471-4 0  9993
2 14453 081.1670 288.4732 0103902 272.4298 086.4988 14.24685875772622
Epoch (UTC): 10 December 2017 22:44:35
Eccentricity: 0.0103902
inclination: 81.1670°
perigee height: 735 km
apogee height: 884 km
right ascension of ascending node: 288.4732°
argument of perigee: 272.4298°
revolutions per day: 14.24685875
mean anomaly at epoch: 86.4988°
orbit number at epoch: 77262

The dashed part of the orbit path shows where the satellite is in the earth's shadow,  

DLR